Погода в Симрисхамне

Швеция     55°33′33″N   14°20′37″E
темп.,
°C
ветер,
м/с
пор.,
м/с
влажн.,
%
обл.,
%
осадки,
мм/ч
давл.,
гПа
погр.,
м
14 мая, пт
пт1423:00+8св34885 0.0 100445
02:00+8ссв458699 0.0 100362
05:00+9ссв4678100 0.0 100397
08:00+10св4685100 0.0 1003141
11:00+10в5784100 0.0 1004273
14:00+10в4477100 0.0 1004316
17:00+10вюв4580100 0.0 1004155
20:00+9ююв3483100 0.0 100495
15 мая, сб
сб1523:00+8ююз4588100 0.0 1004104
02:00+9юз3693100 0.0 1003115
05:00+9юз6897100 0.0 1002221
08:00+9зюз799485 0.1 1003314
11:00+10зюз8988100 0.0 1004476
14:00+11юз79812 0.0 1004591
17:00+11юз567941 0.0 1004344
20:00+9юз3483100 0.0 100497
16 мая, вс
вс1623:00+8юв34863 0.1 100438
02:00+8юв349487 0.1 100363
05:00+8ю339311 0.0 100246
08:00+10ю3590100 0.0 1003180
11:00+10ююз5789100 0.1 1003320
14:00+9ю4595100 2.6 1003264
17:00+10ю568812 0.1 1003407
20:00+9ю33873 0.1 100288
17 мая, пн
пн1723:00+8ююв44905 0.0 100261
02:00+8ююв34946 0.0 100250
05:00+8ююз2293100 0.0 100119
08:00+10ююз3588100 0.0 1002174
11:00+11ююз4582100 0.1 1002319
14:00+11ююз56828 0.1 1002426
17:00+11ююз458298 0.0 1002283
20:00+10юз358879 0.0 1002124
18 мая, вт
вт1823:00+9ююз33905 0.0 100222
02:00+8юз339241 0.0 100225
05:00+8юз339598 0.0 100245
08:00+9ююз349396 0.0 1003206
11:00+10юз459494 0.5 1003296
14:00+8з101492100 1.6 1005584
17:00+11з587970 0.4 1006610
20:00+10з588510 0.8 1006196